Wind_Speed
3 2 2 2 3 3 8 5 6 9 3 5 3 3 1 2 9 7 6 8 7 6 7 6 7 6 7 7 7 7 6 5 5 4 3 1 2 3 4 6 6 6 5 4 4 3 2 3 4
3 1 2 5 2 6 3 9 7 9 9 4 11 8 3 4 3 9 7 9 13 9 8 6 5 5 7 8 8 9 8 9 9 8 7 6 5 4 2 2 2 3 3 3 2 2 2 3 4
3 1 3 1 6 11 6 6 10 7 9 9 4 1 4 4 1 4 6 8 10 8 6 5 5 6 7 9 11 11 11 11 11 11 11 10 9 8 7 5 3 2 1 1 1 1 2 3 4
3 5 4 5 6 4 7 7 9 8 8 5 5 5 11 5 4 6 11 8 5 6 6 6 6 7 8 10 12 13 14 14 13 14 14 14 13 12 11 11 8 6 5 4 4 4 4 4 5
5 4 3 9 13 15 4 6 11 5 12 3 3 11 6 8 8 9 8 9 9 9 8 7 7 8 9 11 12 12 13 13 14 14 15 14 15 15 15 14 14 11 10 9 8 8 8 7 7
2 1 9 18 20 7 8 8 8 7 3 7 7 7 7 4 10 11 9 8 8 7 8 7 9 11 11 12 13 14 14 13 13 13 13 14 15 16 17 17 17 16 14 14 13 12 12 11 10
5 3 14 17 17 7 11 11 3 13 9 12 5 5 12 9 7 11 12 10 8 13 11 11 13 13 13 14 16 17 15 14 14 15 14 14 15 16 17 18 20 18 18 18 17 17 16 15 14
5 12 13 7 18 7 11 14 11 9 10 9 12 12 14 13 12 8 9 18 19 18 18 18 18 18 17 18 17 17 17 15 16 16 16 17 17 18 18 19 20 21 21 22 21 21 21 20 19
3 12 10 8 7 5 8 4 7 5 11 7 15 10 12 16 15 18 18 22 23 23 21 20 19 18 19 19 19 18 19 19 18 19 20 20 20 19 19 19 20 22 23 24 24 24 25 25 25
9 8 6 8 6 7 3 3 4 6 5 8 15 21 26 24 23 20 21 24 26 26 25 25 24 22 25 26 25 25 23 25 24 26 25 27 24 24 24 21 19 21 23 26 26 27 28 29 29
11 14 10 12 15 9 9 10 7 5 10 11 20 21 25 25 23 24 25 24 21 21 22 23 26 28 28 28 28 29 26 26 30 19 21 23 23 25 27 25 23 23 24 26 30 27 31 33 33
16 16 20 12 23 21 16 20 14 12 16 19 21 26 29 32 30 27 24 21 19 19 22 23 26 27 29 29 26 27 28 26 26 24 26 29 29 28 27 25 25 25 26 26 28 30 34 33 35
10 16 16 12 19 23 22 18 16 19 19 23 30 31 31 35 32 26 23 24 23 22 24 25 27 28 28 29 28 28 30 31 30 32 33 31 30 29 28 26 26 27 29 29 29 32 33 34 36
17 17 20 22 20 21 18 15 16 17 18 23 28 27 24 27 27 23 25 26 27 26 28 29 30 30 30 29 29 29 31 32 33 34 33 33 32 31 29 28 29 29 30 33 36 37 37 35 37
19 22 23 20 22 23 16 19 18 10 18 24 28 30 26 28 27 26 28 30 32 31 30 32 32 31 29 28 30 31 32 33 33 33 33 32 32 31 31 32 33 31 32 35 37 40 40 41 41
15 15 19 9 8 16 19 19 18 16 22 24 25 27 30 29 28 31 35 35 33 31 27 28 28 28 28 28 28 27 32 33 33 33 34 35 34 34 34 35 35 34 34 36 36 35 37 38 38
12 14 14 12 12 21 25 20 3 3 22 23 23 28 30 34 34 30 35 37 37 31 25 24 24 25 25 27 25 26 28 32 33 33 33 35 35 36 36 36 37 35 34 36 38 35 34 34 34
10 14 20 17 5 17 20 17 14 14 14 14 15 27 33 38 37 35 37 38 34 29 23 21 23 23 24 26 27 28 27 31 29 31 31 32 32 34 34 36 36 35 35 35 35 34 33 33 27
15 22 25 21 20 12 18 22 19 16 24 22 21 28 39 41 40 35 37 35 34 26 21 18 19 20 21 22 25 27 29 30 30 32 29 33 32 35 37 37 36 37 38 38 37 36 33 32 32
22 22 24 25 25 21 23 29 26 26 26 30 33 34 41 42 42 39 33 37 28 22 19 17 17 18 18 18 20 24 26 28 30 32 32 34 35 38 40 40 39 39 39 41 41 40 36 35 34
22 23 22 24 26 24 29 40 33 31 30 28 30 32 35 41 41 39 38 34 24 19 18 17 15 16 18 18 18 20 21 22 24 26 28 30 32 35 38 40 42 43 43 44 46 46 44 40 35
28 19 20 23 20 15 12 20 31 27 22 18 30 36 42 44 45 45 38 31 20 19 18 16 15 16 17 19 19 20 22 23 24 26 29 31 32 35 36 36 37 37 41 45 47 49 50 49 45
23 17 22 23 16 20 24 13 47 24 28 26 30 37 42 45 43 40 35 26 19 18 19 17 17 17 19 22 22 23 24 26 27 29 30 32 33 35 36 37 38 39 40 40 41 44 49 52 51
25 19 19 16 13 11 24 19 32 22 21 19 28 33 34 31 31 32 25 24 18 16 18 17 18 20 20 21 23 24 25 27 29 31 33 35 35 36 36 36 37 37 38 39 40 40 42 44 48
18 14 2 4 6 8 17 16 27 11 15 15 17 25 33 30 27 27 21 20 15 16 18 19 20 22 23 23 24 26 28 29 31 34 35 36 37 37 36 35 36 36 37 38 40 41 42 42 44
24 19 13 5 4 5 21 8 8 27 30 21 19 23 24 28 29 26 20 17 15 14 17 20 21 23 24 25 26 27 29 30 33 35 36 37 35 32 30 30 30 30 31 33 35 37 38 39 41
21 28 22 25 18 1 8 22 26 10 6 6 5 13 22 26 27 24 23 19 16 14 17 21 22 24 26 27 28 29 31 33 33 35 37 35 30 25 23 22 22 21 22 23 24 26 27 29 33
23 15 10 5 2 4 6 11 9 8 1 2 7 7 19 21 24 33 29 23 20 16 17 22 25 25 27 29 30 31 33 34 32 35 35 30 24 20 18 16 13 11 12 15 14 15 17 20 23
11 14 19 12 7 4 2 7 9 9 17 28 16 19 14 17 23 32 30 31 23 19 19 23 25 27 28 28 30 33 28 28 32 33 30 24 20 18 15 12 10 9 11 13 15 16 20 23 23
16 10 11 14 9 11 13 21 26 22 21 23 22 16 24 26 22 34 33 42 26 26 23 24 24 25 26 29 28 24 25 27 30 29 25 20 19 17 14 16 16 15 13 13 15 17 20 24 31
Wind_Direction
313 287 284 228 196 277 299 287 145 107 128 66 355 39 27 354 29 124 164 157 205 172 172 194 226 243 251 259 263 265 266 269 271 266 265 281 355 32 52 63 70 78 85 96 114 135 169 192 201
304 234 205 190 221 273 281 109 90 50 74 68 101 149 147 39 86 110 147 170 169 174 163 178 208 236 252 261 270 276 283 284 279 273 267 262 260 273 302 11 32 56 66 62 66 144 184 202 217
281 215 174 236 278 282 113 100 53 37 106 100 162 212 129 92 234 156 160 201 163 154 167 186 220 249 263 274 281 284 284 282 283 283 277 270 270 269 271 270 273 297 322 338 319 290 257 234 231
278 189 75 267 286 20 162 173 82 103 85 62 191 189 146 163 224 211 196 200 177 186 198 216 229 247 267 280 286 288 288 285 280 277 279 280 278 276 275 276 269 264 268 268 269 276 266 268 249
232 105 298 284 303 282 183 179 134 138 124 130 333 153 170 160 206 204 203 199 196 214 224 235 255 270 278 284 283 284 286 286 285 281 277 273 274 277 276 276 277 273 269 269 269 273 271 274 266
145 326 279 295 305 216 215 258 138 98 149 121 58 159 184 234 251 246 233 245 232 237 252 267 274 272 273 281 287 287 281 281 280 280 278 277 274 273 274 276 276 276 274 270 267 268 274 277 268
167 321 282 290 296 252 200 229 163 165 151 190 140 176 170 217 241 254 255 258 261 250 250 257 263 268 273 280 283 285 280 278 278 280 279 277 276 272 271 274 274 273 272 270 269 265 270 271 272
246 264 268 260 310 214 180 196 183 201 203 195 198 167 174 209 218 254 250 258 260 260 264 268 266 272 275 278 279 285 281 277 282 282 282 281 279 279 274 270 270 273 272 271 271 269 264 266 266
276 242 250 301 16 113 146 203 206 230 206 206 218 253 237 232 231 224 243 264 275 278 279 283 288 286 277 281 285 274 275 275 273 275 275 275 274 272 270 270 271 270 267 265 267 268 268 266 264
242 245 276 306 254 144 148 111 162 204 176 235 253 244 251 253 251 253 256 265 273 283 295 296 294 287 290 289 285 279 281 273 271 273 271 272 271 275 274 271 269 269 269 268 267 269 270 267 266
226 250 245 290 275 218 164 197 241 220 199 208 225 236 250 256 259 266 272 271 269 271 276 282 287 291 289 287 287 286 281 273 274 293 275 273 268 276 272 275 274 269 264 262 261 262 266 264 264
251 245 248 292 274 269 252 249 223 239 228 235 240 243 257 270 277 281 282 280 277 278 279 280 279 279 283 283 278 274 275 270 272 267 265 269 273 277 275 273 272 269 268 263 259 260 265 266 263
239 247 243 275 274 271 267 256 238 234 238 238 244 248 256 266 274 281 283 283 282 282 281 280 280 280 278 277 275 271 267 265 261 264 266 268 270 271 274 275 275 272 269 264 261 262 264 265 265
227 236 240 226 249 267 274 267 257 254 230 243 260 262 259 265 274 278 282 285 288 288 286 286 284 282 280 276 271 266 265 264 263 263 263 264 267 270 272 271 271 272 274 272 269 267 265 268 268
244 249 257 258 257 261 261 264 271 285 241 244 253 266 272 273 275 278 279 283 287 286 287 290 291 291 286 278 273 270 269 267 266 264 265 265 265 268 271 270 271 274 275 275 272 272 270 269 270
260 259 270 289 263 256 239 259 302 262 233 226 240 267 273 268 274 279 287 294 302 294 286 283 284 286 287 284 281 274 268 269 270 269 268 268 269 269 270 270 270 271 272 274 274 272 274 274 274
247 262 274 295 269 245 221 248 238 237 208 236 251 272 269 273 275 274 288 296 306 296 291 289 287 286 286 287 287 282 278 275 270 270 269 270 269 269 268 268 268 269 268 268 269 275 274 276 277
248 262 285 284 228 236 241 247 253 246 241 249 255 262 259 265 269 276 285 291 301 293 290 291 291 291 290 289 288 287 285 280 280 276 274 273 273 272 270 268 268 268 268 269 272 273 274 275 276
282 276 281 268 252 273 256 263 263 241 237 243 255 270 255 261 272 277 280 287 299 287 289 291 291 290 288 288 286 285 287 289 290 286 288 282 281 278 275 274 274 272 272 271 271 271 271 270 271
263 264 260 258 255 275 277 270 259 256 256 263 256 257 253 263 270 270 278 292 292 290 293 295 292 289 291 289 286 286 286 289 290 292 292 290 287 283 284 284 284 282 278 276 273 270 268 269 269
259 268 275 273 280 270 279 272 266 266 272 278 254 251 252 256 258 265 271 289 289 287 290 292 292 296 300 302 302 299 298 297 299 299 299 296 294 290 288 286 284 282 279 277 275 274 273 271 270
258 251 259 277 280 284 258 288 275 271 264 272 250 239 243 249 256 263 273 283 283 283 287 285 290 297 303 306 303 299 297 297 299 299 300 301 300 296 294 292 292 293 289 282 278 276 274 273 271
262 271 259 267 264 273 265 265 279 284 273 272 257 242 238 245 254 265 273 279 282 280 283 284 291 297 307 308 304 303 303 305 307 309 309 307 305 302 299 296 292 289 288 288 287 283 281 278 276
252 256 250 259 269 261 256 228 272 284 301 267 240 234 240 252 259 262 268 274 275 282 285 284 289 291 302 308 305 304 306 308 309 310 310 310 308 306 303 298 295 292 289 283 279 280 280 280 277
239 218 278 262 203 234 277 256 248 309 332 303 274 260 259 256 251 252 273 266 279 285 286 286 285 287 295 304 306 307 308 311 312 314 314 314 312 308 304 300 295 293 290 287 283 279 278 276 272
231 215 198 209 207 269 283 263 288 305 294 298 266 259 255 257 257 248 270 268 284 286 290 289 287 289 295 301 304 307 311 315 315 316 318 319 316 311 308 305 302 299 296 292 289 287 283 280 277
221 218 233 242 267 294 262 278 292 305 32 135 181 235 234 253 260 259 270 271 284 293 289 284 283 285 291 297 302 306 310 313 316 319 322 323 319 318 321 324 325 325 323 317 312 305 299 292 286
222 238 252 243 122 239 245 282 275 300 36 166 199 224 228 231 244 257 262 276 277 302 301 295 287 284 288 295 301 304 307 310 315 320 323 321 316 320 322 322 331 347 2 5 2 353 342 327 313
222 254 251 270 266 201 277 252 268 263 318 319 303 291 284 284 255 233 240 270 267 287 298 296 286 282 287 296 302 306 309 312 316 321 321 319 313 315 315 315 331 351 16 18 16 19 24 19 9
240 256 278 228 264 261 251 261 275 302 307 309 298 292 300 302 283 291 287 260 253 257 297 293 281 280 288 297 303 304 308 313 318 321 319 318 314 313 300 310 313 320 328 335 352 6 17 21 21
Height
3160 3160 3160 3160 3163 3159 3157 3161 3157 3155 3155 3159 3163 3158 3162 3162 3162 3167 3167 3170 3171 3171 3172 3173 3174 3175 3175 3176 3176 3176 3176 3176 3175 3175 3175 3175 3175 3175 3174 3173 3172 3172 3171 3170 3169 3168 3168 3168 3167
3160 3160 3160 3159 3161 3159 3160 3158 3156 3156 3158 3162 3162 3159 3160 3161 3163 3163 3166 3167 3171 3170 3170 3171 3173 3173 3174 3175 3175 3175 3175 3174 3174 3173 3173 3173 3173 3173 3173 3172 3171 3171 3170 3170 3169 3168 3167 3166 3166
3160 3160 3160 3158 3159 3159 3160 3157 3157 3158 3159 3161 3161 3160 3162 3162 3164 3163 3164 3165 3169 3169 3170 3171 3172 3173 3173 3173 3173 3173 3173 3172 3172 3171 3171 3171 3171 3171 3171 3171 3170 3170 3170 3168 3168 3167 3166 3165 3165
3159 3160 3160 3158 3157 3161 3158 3158 3158 3159 3161 3162 3160 3160 3162 3163 3164 3165 3164 3165 3169 3169 3170 3170 3170 3171 3172 3172 3171 3171 3170 3170 3169 3168 3168 3168 3169 3169 3169 3169 3169 3169 3169 3168 3167 3166 3165 3164 3164
3159 3158 3158 3156 3156 3162 3158 3158 3158 3158 3160 3160 3157 3159 3161 3163 3161 3163 3164 3166 3167 3167 3168 3169 3170 3170 3170 3169 3169 3168 3168 3167 3166 3166 3165 3164 3165 3166 3166 3166 3167 3167 3167 3167 3166 3165 3164 3163 3164
3157 3158 3157 3156 3157 3160 3155 3156 3156 3158 3161 3161 3159 3160 3162 3164 3162 3162 3164 3165 3167 3166 3166 3169 3169 3168 3167 3167 3166 3166 3165 3165 3165 3165 3164 3163 3162 3161 3162 3163 3164 3164 3165 3165 3164 3164 3163 3163 3162
3154 3157 3156 3154 3154 3157 3154 3154 3155 3156 3160 3164 3163 3157 3160 3162 3163 3161 3163 3163 3162 3161 3166 3166 3165 3166 3166 3165 3164 3164 3164 3163 3163 3163 3162 3161 3161 3159 3157 3157 3159 3160 3161 3161 3161 3162 3161 3160 3161
3153 3156 3155 3153 3153 3154 3154 3151 3155 3155 3159 3161 3161 3157 3158 3160 3161 3161 3158 3155 3159 3161 3163 3164 3163 3163 3162 3161 3162 3162 3161 3160 3161 3160 3159 3159 3158 3156 3154 3152 3154 3156 3157 3157 3157 3157 3157 3157 3157
3153 3154 3153 3155 3153 3154 3155 3153 3154 3153 3155 3157 3157 3155 3157 3157 3159 3158 3155 3155 3157 3158 3160 3161 3162 3161 3160 3158 3158 3157 3156 3156 3155 3156 3155 3154 3152 3152 3152 3149 3149 3152 3152 3152 3152 3152 3152 3153 3152
3150 3151 3152 3154 3154 3152 3154 3155 3152 3152 3155 3157 3153 3153 3152 3153 3155 3156 3155 3154 3155 3155 3155 3154 3155 3157 3155 3153 3153 3151 3153 3151 3150 3147 3150 3151 3148 3148 3148 3146 3144 3145 3146 3146 3146 3146 3147 3148 3147
3147 3147 3150 3150 3149 3150 3151 3153 3153 3150 3151 3153 3149 3148 3147 3149 3151 3152 3152 3152 3154 3153 3152 3151 3150 3148 3148 3148 3146 3144 3145 3147 3146 3141 3144 3144 3143 3143 3144 3141 3139 3140 3140 3140 3139 3139 3138 3138 3140
3145 3145 3146 3147 3144 3145 3148 3148 3149 3148 3147 3149 3148 3146 3145 3144 3145 3146 3147 3148 3148 3148 3147 3147 3145 3144 3142 3141 3140 3138 3138 3138 3140 3140 3140 3139 3137 3138 3138 3134 3133 3132 3133 3134 3133 3132 3132 3133 3132
3139 3141 3140 3142 3142 3141 3142 3143 3145 3146 3142 3144 3143 3144 3144 3141 3141 3142 3141 3140 3142 3143 3142 3141 3140 3138 3137 3136 3135 3133 3131 3132 3133 3133 3133 3132 3132 3132 3130 3128 3127 3126 3127 3126 3125 3124 3124 3124 3122
3135 3135 3135 3135 3136 3138 3137 3138 3139 3141 3142 3139 3137 3137 3140 3138 3136 3138 3137 3133 3134 3137 3135 3134 3133 3132 3131 3130 3129 3127 3125 3125 3125 3125 3126 3126 3126 3124 3123 3120 3119 3120 3120 3118 3116 3117 3117 3116 3114
3131 3132 3132 3132 3133 3134 3135 3135 3134 3137 3137 3136 3133 3131 3132 3131 3132 3132 3130 3130 3128 3129 3128 3126 3125 3124 3123 3123 3122 3121 3120 3117 3118 3119 3118 3118 3117 3116 3114 3112 3113 3114 3112 3111 3109 3108 3109 3108 3108
3129 3128 3127 3130 3128 3128 3132 3130 3132 3132 3132 3134 3132 3128 3124 3124 3127 3127 3125 3124 3125 3123 3122 3119 3117 3116 3115 3114 3115 3115 3112 3111 3110 3110 3109 3108 3108 3108 3107 3107 3107 3106 3105 3103 3103 3102 3101 3101 3100
3126 3124 3124 3125 3123 3123 3127 3128 3129 3125 3128 3131 3130 3126 3121 3118 3119 3121 3123 3121 3121 3118 3117 3114 3113 3111 3109 3108 3108 3107 3106 3104 3104 3103 3103 3102 3101 3101 3100 3099 3098 3098 3097 3096 3095 3095 3095 3094 3093
3122 3123 3123 3123 3125 3123 3123 3125 3127 3126 3126 3127 3128 3120 3115 3109 3111 3115 3117 3116 3115 3114 3112 3111 3109 3108 3106 3104 3103 3102 3101 3096 3097 3096 3097 3095 3094 3093 3092 3090 3090 3090 3089 3088 3088 3088 3088 3088 3087
3120 3120 3119 3119 3121 3122 3122 3121 3123 3123 3122 3122 3124 3118 3108 3102 3103 3107 3111 3111 3109 3107 3106 3106 3105 3102 3102 3101 3098 3098 3096 3094 3092 3090 3091 3088 3088 3086 3084 3084 3084 3082 3081 3080 3080 3080 3081 3081 3081
3115 3113 3115 3114 3115 3115 3114 3111 3114 3116 3115 3116 3117 3112 3105 3102 3100 3100 3106 3105 3105 3102 3101 3100 3101 3099 3097 3096 3094 3093 3092 3090 3088 3086 3083 3081 3080 3077 3076 3075 3075 3074 3073 3070 3070 3069 3072 3072 3071
3110 3109 3111 3112 3114 3112 3108 3099 3103 3107 3108 3109 3107 3105 3102 3099 3095 3097 3101 3101 3102 3099 3097 3095 3095 3095 3094 3092 3091 3089 3087 3085 3084 3081 3079 3075 3073 3072 3069 3067 3065 3063 3062 3061 3060 3059 3059 3062 3063
3104 3108 3109 3109 3108 3106 3109 3097 3097 3101 3101 3100 3100 3096 3093 3093 3093 3093 3099 3098 3097 3095 3093 3092 3091 3090 3089 3088 3086 3085 3084 3082 3080 3078 3075 3071 3068 3065 3063 3059 3056 3054 3052 3050 3049 3048 3047 3048 3052
3097 3103 3103 3103 3104 3102 3102 3106 3081 3091 3091 3094 3091 3090 3085 3085 3088 3090 3092 3094 3093 3091 3089 3088 3087 3086 3085 3084 3082 3081 3079 3077 3074 3073 3070 3066 3063 3058 3055 3052 3049 3046 3043 3040 3037 3036 3035 3034 3036
3096 3097 3097 3099 3102 3098 3095 3099 3080 3086 3085 3085 3085 3082 3081 3084 3084 3085 3086 3087 3088 3087 3085 3084 3083 3082 3081 3080 3078 3077 3075 3073 3070 3068 3064 3061 3056 3053 3048 3044 3040 3037 3034 3032 3030 3027 3025 3023 3021
3090 3092 3096 3097 3097 3091 3089 3089 3083 3085 3080 3080 3081 3081 3079 3078 3079 3079 3081 3081 3082 3081 3080 3080 3078 3077 3076 3075 3073 3071 3070 3067 3065 3062 3058 3054 3050 3045 3041 3036 3032 3028 3025 3021 3019 3017 3015 3014 3012
3082 3087 3088 3089 3088 3085 3083 3080 3080 3078 3074 3072 3073 3074 3075 3073 3072 3076 3076 3076 3077 3077 3076 3076 3074 3073 3071 3069 3068 3066 3063 3061 3059 3056 3053 3048 3043 3038 3033 3029 3025 3020 3016 3013 3009 3007 3005 3002 3000
3079 3080 3083 3081 3081 3080 3080 3077 3081 3077 3073 3073 3072 3075 3073 3072 3070 3071 3072 3072 3072 3073 3071 3070 3069 3067 3066 3064 3062 3060 3057 3055 3054 3050 3046 3041 3036 3032 3028 3024 3020 3016 3011 3007 3003 2999 2996 2992 2989
3073 3078 3079 3077 3079 3080 3072 3074 3073 3074 3075 3076 3074 3072 3071 3071 3067 3066 3067 3068 3069 3070 3067 3066 3065 3062 3061 3059 3057 3055 3052 3049 3047 3045 3040 3036 3032 3028 3026 3023 3019 3015 3010 3006 3001 2997 2991 2987 2982
3069 3070 3074 3074 3075 3073 3073 3068 3068 3069 3072 3072 3073 3072 3069 3068 3067 3063 3059 3064 3066 3065 3065 3061 3059 3057 3055 3055 3052 3049 3046 3043 3041 3039 3035 3031 3028 3025 3023 3021 3017 3014 3010 3006 3002 2996 2990 2985 2979
3066 3067 3069 3070 3071 3070 3067 3063 3069 3068 3067 3068 3066 3066 3065 3063 3061 3061 3059 3057 3058 3060 3059 3057 3053 3051 3049 3049 3048 3044 3042 3039 3035 3033 3030 3027 3024 3022 3020 3017 3015 3012 3008 3004 3000 2995 2989 2982 2975